Weather in Windermere

United Kingdom     54°22′53″N   2°54′18″W
temp.,
°C
wind,
m/s
gust,
m/s
humid.,
%
clouds,
%
prec.,
mm/h
press.,
hPa
HPBL,
m
8 may, sat
sat801:000se117998 0.0 101210
04:00+2e2272100 0.0 100827
07:00+3ese51286100 0.4 1004838
10:00+2ese41598100 5.6 1000685
13:00+4sse3598100 6.6 996290
16:00+6s413100100 0.0 994616
19:00+10ssw71393100 0.4 994897
22:00+7s489962 0.1 993299
9 may, sun
sun901:00+8ssw51294100 1.4 992585
04:00+7ssw3997100 0.2 992418
07:00+8ssw41096100 0.5 991744
10:00+10s61180100 0.1 9911140
13:00+12ssw8126894 0.1 9911617
16:00+12ssw71372100 0.4 9911556
19:00+11s5117815 0.6 9911242
22:00+6sse3494100 0.0 99255
10 may, mon
mon1001:00+7s4998100 0.3 992390
04:00+7sse3898100 0.3 992457
07:00+7sse3896100 0.3 993600
10:00+8sse4989100 0.3 9931026
13:00+8sse4991100 0.9 9941076
16:00+9s5108881 1.1 9951009
19:00+8ssw7128914 2.0 9971127
22:00+6ssw7139288 0.1 1000840
11 may, tue
tue1101:00+4ssw4109416 0.1 1003407
04:00+2sse349936 0.0 100586
07:00+4sse239510 0.0 1006113
10:00+9sse357712 0.0 1006941
13:00+10sse4672100 0.6 10051324
16:00+8se3687100 2.6 1006868
19:00+9ese258698 3.9 1005723
22:00+7ese229157 2.2 100532
12 may, wed
wed1201:00+6e249488 2.3 1004118
04:00+6e2297100 0.1 100375
07:00+6ese3996100 0.1 1003736
10:00+6sse51194100 0.8 10041190
13:00+7sse4993100 1.4 10041221
16:00+8s689198 0.8 1005819
19:00+8ssw459077 1.2 1006556
22:00+5sse239966 0.1 100892